Location: Haskovo
(41.9227°N, 25.5707°E)
Time: 21:35:19
(UTC+03:00)

ISS - Pass Details

Date: 25 May 2025
Orbit: 415 x 417 km, 51.6° (Epoch: 16 June)

Event Time Altitude Azimuth Distance (km) Brightness Sun altitude
Rises 21:43:05 0° 305° (NW) 2,361 2.3 -10.3°
Reaches altitude 10° 21:45:11 10° 307° (NW) 1,494 0.6 -10.6°
Maximum altitude 21:48:32 78° 34° (NE) 429 -3.7 -11.0°
Enters shadow 21:50:53 18° 120° (ESE) 1,092 -2.3 -11.3°
